FW7196 Weather Reports


time (UTC)temp
C
wind
direction
speed
KPH
gust
KPH
rain 1hr
cm
rain 24hr
cm
rain mn
cm
humidity
%
barometer
mb
20260508084535 -1 0 0.0 0.0 0.00 0.00 0.00 91 1007.9
20260508083044 -1 0 0.0 0.0 0.00 0.00 0.00 91 1008.0
20260508081542 -1 0 0.0 0.0 0.00 0.00 0.00 91 1007.8
20260508080036 -1 0 0.0 0.0 0.00 0.00 0.00 91 1007.7
20260508074536 -1 0 0.0 0.0 0.00 0.00 0.00 90 1007.6
20260508073034 -1 0 0.0 0.0 0.00 0.00 0.00 90 1007.6
20260508071538 -1 0 0.0 0.0 0.00 0.00 0.00 89 1007.6
20260508070113 -1 0 0.0 0.0 0.00 0.00 0.00 89 1007.8
20260508064538 0 0 0.0 0.0 0.00 0.00 0.00 89 1007.9
20260508063037 0 0 0.0 0.0 0.00 0.00 0.00 88 1007.8
20260508061537 0 0 0.0 0.0 0.00 0.00 0.00 88 1007.8
20260508060040 0 0 0.0 0.0 0.00 0.00 0.00 88 1007.9
20260508054537 0 0 0.0 0.0 0.00 0.00 0.00 87 1007.9
20260508053038 0 0 0.0 0.0 0.00 0.00 0.00 87 1008.1
20260508051535 0 0 0.0 0.0 0.00 0.00 0.00 87 1008.5
20260508050036 0 0 0.0 0.0 0.00 0.00 0.00 86 1008.5
20260508044535 0 0 0.0 0.0 0.00 0.00 0.00 85 1008.5
20260508043053 0 0 0.0 0.0 0.00 0.00 0.00 84 1008.4
20260508041537 1 0 0.0 0.0 0.00 0.00 0.00 83 1008.5
20260508040036 1 0 0.0 0.0 0.00 0.00 0.00 82 1008.4
20260508034535 1 0 0.0 0.0 0.00 0.00 0.00 81 1008.4
20260508033038 2 0 0.0 0.0 0.00 0.00 0.00 79 1008.3
20260508031536 2 0 0.0 0.0 0.00 0.00 0.00 77 1008.3
20260508030048 2 0 0.0 0.0 0.00 0.00 0.00 74 1008.4
20260508024536 3 0 0.0 0.0 0.00 0.10 0.00 72 1008.4
20260508023037 3 0 0.0 0.0 0.00 0.10 0.00 70 1008.3
20260508021537 3 0 0.0 0.0 0.00 0.10 0.00 70 1008.3
20260508020036 4 0 0.0 0.0 0.00 0.10 0.00 69 1008.1
20260508014535 5 0 0.0 0.0 0.00 0.25 0.00 65 1008.0
20260508013034 6 0 0.0 0.0 0.00 0.25 0.00 60 1007.9
20260508011536 7 0 0.0 0.0 0.00 0.25 0.00 61 1007.8
20260508010042 7 0 0.0 0.0 0.00 0.25 0.00 48 1007.6
20260508004538 8 0 0.0 0.0 0.00 0.38 0.00 47 1007.3
20260508003037 8 0 0.0 0.0 0.00 0.38 0.00 46 1007.2
20260508001536 8 0 1.6 9.7 0.00 0.38 0.00 44 1007.0
20260508000041 9 4 1.6 6.4 0.00 0.38 0.00 42 1006.9
20260507234541 10 0 0.0 4.8 0.00 0.48 0.00 41 1006.6
20260507233036 10 0 1.6 11.3 0.00 0.48 0.00 39 1006.5
20260507231535 11 0 1.6 20.9 0.00 0.48 0.00 37 1006.3
20260507230036 11 0 1.6 11.3 0.00 0.48 0.00 37 1006.2
20260507224535 11 11 1.6 11.3 0.00 0.53 0.00 36 1006.1
20260507223034 11 1 1.6 12.9 0.00 0.53 0.00 38 1006.0
20260507221535 11 198 4.8 16.1 0.00 0.53 0.00 35 1005.9
20260507220037 11 0 1.6 14.5 0.00 0.53 0.00 36 1005.8
20260507214534 11 5 3.2 20.9 0.00 1.12 0.00 38 1005.9
20260507213038 11 348 1.6 14.5 0.00 1.12 0.00 38 1005.9
20260507211540 11 5 1.6 17.7 0.00 1.12 0.00 36 1005.8
20260507210036 11 0 1.6 14.5 0.00 1.12 0.00 36 1005.7
20260507204538 12 28 1.6 9.7 0.00 1.32 0.00 35 1005.9
20260507203036 12 201 1.6 14.5 0.00 1.32 0.00 38 1005.6
20260507201539 13 53 1.6 9.7 0.00 1.32 0.00 36 1005.8
20260507200037 12 0 1.6 14.5 0.00 1.32 0.00 37 1005.8
20260507194545 11 281 1.6 14.5 0.00 1.42 0.00 37 1005.9
20260507193037 11 165 1.6 11.3 0.00 1.42 0.00 39 1006.1
20260507191535 12 297 3.2 12.9 0.00 1.42 0.00 37 1006.1
20260507190034 12 334 1.6 16.1 0.00 1.42 0.00 37 1006.2
20260507184537 12 156 3.2 24.1 0.00 1.57 0.00 41 1006.5
20260507183042 12 333 4.8 14.5 0.00 1.57 0.00 39 1006.6
20260507181539 12 153 1.6 11.3 0.00 1.57 0.00 44 1006.6
20260507180034 11 113 3.2 14.5 0.00 1.57 0.00 40 1006.7
20260507174536 12 348 1.6 14.5 0.00 1.85 0.00 41 1006.7
20260507173039 12 159 4.8 14.5 0.00 1.85 0.00 39 1006.6
20260507171536 12 348 1.6 19.3 0.00 1.85 0.00 41 1006.9
20260507170035 12 265 3.2 16.1 0.00 1.85 0.00 42 1007.0
20260507164543 11 33 3.2 12.9 0.00 2.01 0.00 44 1007.2
20260507163037 11 339 0.0 9.7 0.00 2.01 0.00 48 1007.4
20260507161542 11 333 3.2 9.7 0.00 2.01 0.00 46 1007.6
20260507160036 11 9 3.2 19.3 0.00 2.01 0.00 46 1007.8
20260507154537 11 272 1.6 11.3 0.00 2.03 0.00 47 1008.1
20260507153035 10 21 1.6 9.7 0.00 2.03 0.00 50 1007.9
20260507151535 10 149 1.6 14.5 0.00 2.03 0.00 50 1008.0
20260507150035 10 357 3.2 11.3 0.00 2.03 0.00 52 1008.1
20260507144537 9 327 3.2 9.7 0.00 2.03 0.00 57 1008.1
20260507143055 9 262 1.6 6.4 0.00 2.03 0.00 68 1008.2
20260507142721 9 348 1.6 11.3 0.00 1.96 0.00 66 1008.2
20260507142205 9 39 1.6 11.3 0.00 1.96 0.00 67 1008.0
20260507141553 8 219 1.6 14.5 0.00 2.03 0.00 71 1008.0
20260507141026 8 207 1.6 11.3 0.00 1.96 0.00 72 1008.1
20260507140513 8 112 1.6 8.0 0.00 1.96 0.00 78 1007.9
20260507140039 7 340 3.2 9.7 0.00 2.03 0.00 81 1008.0
20260507140017 8 353 1.6 8.0 0.00 1.96 0.00 81 1008.0
20260507134844 7 80 0.0 6.4 0.00 1.96 0.00 89 1008.0
20260507134535 6 80 1.6 8.0 0.00 2.03 0.00 92 1007.8
20260507134351 7 83 0.0 4.8 0.00 1.96 0.00 92 1007.9
20260507133852 7 353 0.0 0.0 0.00 1.96 0.00 94 1007.9
20260507133331 6 353 0.0 1.6 0.00 1.96 0.00 96 1007.8
20260507133037 6 348 0.0 6.4 0.00 2.03 0.00 96 1007.9
20260507132832 6 353 0.0 1.6 0.00 1.96 0.00 96 1007.9
20260507132317 6 353 0.0 3.2 0.00 1.96 0.00 97 1007.9
20260507131541 6 0 0.0 6.4 0.00 2.03 0.00 97 1008.0
20260507130041 6 0 0.0 3.2 0.00 2.03 0.00 97 1008.0
20260507124537 6 0 0.0 0.0 0.00 2.03 0.00 97 1008.0
20260507123040 6 0 0.0 0.0 0.00 2.03 0.00 97 1008.0
20260507121542 6 0 0.0 0.0 0.00 2.03 0.00 97 1007.6
20260507120036 5 0 0.0 0.0 0.00 2.03 0.00 97 1007.8
20260507114535 5 0 0.0 0.0 0.00 2.03 0.00 97 1007.6
20260507113037 5 0 0.0 0.0 0.00 2.03 0.00 97 1007.7
20260507111536 3 0 0.0 0.0 0.00 2.03 0.00 97 1007.6
20260507110037 3 0 0.0 0.0 0.00 2.03 0.00 96 1007.4
20260507104537 3 0 0.0 0.0 0.00 2.03 0.00 96 1007.7
20260507103036 2 0 0.0 0.0 0.00 2.03 0.00 96 1007.6
20260507101537 2 0 0.0 0.0 0.00 2.03 0.00 96 1007.4
20260507100046 2 0 0.0 0.0 0.00 2.03 0.00 95 1007.2
20260507094537 3 0 0.0 0.0 0.00 2.03 0.00 96 1007.5
20260507093648 3 336 0.0 0.0 0.00 1.96 0.00 96 1007.5
20260507093037 3 0 0.0 0.0 0.00 2.03 0.00 96 1007.5
20260507091539 3 0 0.0 0.0 0.00 2.03 0.00 96 1007.7
20260507090044 3 0 0.0 0.0 0.00 2.03 0.00 96 1007.8